When you browse on this site, cookies collect data to enhance your experience and personalize the content and advertising you see.
Visit our Privacy Policy to learn more. By continuing to use the site, you agree to this use of cookies and data.
  • In Österreich
  • Länderverzeichnis
  • Für 7 Tage
  • Wassertemperatur
  • Satellitenkarten
  • Wetterkarte
  • News
  • Widgets
  • user-avatar
    Anmelden

    Stündliche Wetter Coram

    Heute, 21 April, Sonntag

    Zeit Temperatur Niederschläge Wind Luftdruck Luftfeuchtigkeit
    00:00 +13°C° 0 mm 4 m/S 757 mmHg 85%
    01:00 +13°C° 0 mm 3 m/S 757 mmHg 87%
    02:00 +13°C° 0 mm 3 m/S 757 mmHg 86%
    03:00 +13°C° 0 mm 3 m/S 757 mmHg 86%
    04:00 +13°C° 0 mm 2 m/S 757 mmHg 85%
    05:00 +12°C° 0.2 mm 3 m/S 757 mmHg 85%
    06:00 +12°C° 0.2 mm 3 m/S 757 mmHg 85%
    07:00 +12°C° 0.2 mm 3 m/S 758 mmHg 85%
    08:00 +13°C° 0 mm 3 m/S 758 mmHg 82%
    09:00 +14°C° 0 mm 3 m/S 758 mmHg 79%
    10:00 +16°C° 0 mm 3 m/S 758 mmHg 76%
    11:00 +17°C° 0 mm 4 m/S 758 mmHg 72%
    12:00 +17°C° 0 mm 4 m/S 758 mmHg 68%
    13:00 +17°C° 0 mm 4 m/S 758 mmHg 64%
    14:00 +16°C° 0 mm 5 m/S 758 mmHg 63%
    15:00 +16°C° 0 mm 5 m/S 758 mmHg 62%
    16:00 +15°C° 0 mm 5 m/S 758 mmHg 60%
    17:00 +15°C° 0 mm 4 m/S 759 mmHg 62%
    18:00 +14°C° 0 mm 4 m/S 759 mmHg 64%
    19:00 +13°C° 0 mm 4 m/S 759 mmHg 65%
    20:00 +12°C° 0 mm 3 m/S 760 mmHg 67%
    21:00 +12°C° 0 mm 3 m/S 760 mmHg 69%
    22:00 +13°C° 0 mm 2 m/S 760 mmHg 71%
    23:00 +12°C° 0 mm 2 m/S 760 mmHg 73%

    Morgen, 22 April, Montag

    Zeit Temperatur Niederschläge Wind Luftdruck Luftfeuchtigkeit
    00:00 +12°C° 0 mm 1 m/S 760 mmHg 75%
    01:00 +12°C° 0 mm 1 m/S 760 mmHg 77%
    02:00 +12°C° 0 mm 1 m/S 760 mmHg 78%
    03:00 +12°C° 0 mm 1 m/S 760 mmHg 78%
    04:00 +12°C° 0 mm 1 m/S 759 mmHg 79%
    05:00 +12°C° 0 mm 1 m/S 760 mmHg 77%
    06:00 +12°C° 0 mm 1 m/S 760 mmHg 75%
    07:00 +13°C° 0 mm 1 m/S 760 mmHg 72%
    08:00 +14°C° 0 mm 1 m/S 760 mmHg 69%
    09:00 +15°C° 0 mm 1 m/S 760 mmHg 65%
    10:00 +15°C° 0 mm 0 m/S 760 mmHg 61%
    11:00 +19°C° 0 mm 1 m/S 760 mmHg 58%
    12:00 +20°C° 0 mm 1 m/S 759 mmHg 56%
    13:00 +21°C° 0 mm 1 m/S 759 mmHg 54%
    14:00 +20°C° 0 mm 2 m/S 759 mmHg 54%
    15:00 +20°C° 0 mm 2 m/S 758 mmHg 55%
    16:00 +20°C° 0 mm 3 m/S 758 mmHg 56%
    17:00 +18°C° 0 mm 3 m/S 758 mmHg 60%
    18:00 +17°C° 0 mm 3 m/S 758 mmHg 64%
    19:00 +16°C° 0 mm 3 m/S 758 mmHg 67%
    20:00 +15°C° 0 mm 2 m/S 758 mmHg 70%
    21:00 +15°C° 0 mm 2 m/S 759 mmHg 73%
    22:00 +14°C° 0 mm 2 m/S 759 mmHg 75%
    23:00 +14°C° 0 mm 2 m/S 759 mmHg 76%

    übermorgen, 23 April, Dienstag

    Zeit Temperatur Niederschläge Wind Luftdruck Luftfeuchtigkeit
    00:00 +14°C° 0 mm 2 m/S 759 mmHg 78%
    01:00 +14°C° 0 mm 2 m/S 759 mmHg 79%
    02:00 +13°C° 0 mm 2 m/S 759 mmHg 80%
    03:00 +13°C° 0 mm 2 m/S 759 mmHg 81%
    04:00 +13°C° 0 mm 2 m/S 759 mmHg 82%
    05:00 +13°C° 0 mm 2 m/S 759 mmHg 82%
    06:00 +14°C° 0 mm 2 m/S 759 mmHg 82%
    07:00 +14°C° 0 mm 2 m/S 760 mmHg 82%
    08:00 +16°C° 0 mm 1 m/S 760 mmHg 76%
    09:00 +18°C° 0 mm 1 m/S 760 mmHg 70%
    10:00 +18°C° 0 mm 0 m/S 760 mmHg 65%
    11:00 +20°C° 0 mm 1 m/S 759 mmHg 62%
    12:00 +20°C° 0 mm 3 m/S 759 mmHg 60%
    13:00 +20°C° 0 mm 4 m/S 759 mmHg 58%
    14:00 +20°C° 0 mm 4 m/S 758 mmHg 59%
    15:00 +19°C° 0 mm 5 m/S 757 mmHg 60%
    16:00 +17°C° 0 mm 5 m/S 757 mmHg 61%
    17:00 +16°C° 0 mm 5 m/S 756 mmHg 65%
    18:00 +15°C° 0 mm 5 m/S 756 mmHg 69%
    19:00 +14°C° 0 mm 5 m/S 756 mmHg 74%
    20:00 +14°C° 0.2 mm 6 m/S 756 mmHg 74%
    21:00 +14°C° 0.2 mm 7 m/S 755 mmHg 75%
    22:00 +14°C° 0.2 mm 7 m/S 755 mmHg 76%
    23:00 +14°C° 1 mm 7 m/S 754 mmHg 77%

    24 April, Mittwoch

    Zeit Temperatur Niederschläge Wind Luftdruck Luftfeuchtigkeit
    00:00 +14°C° 1 mm 7 m/S 754 mmHg 78%
    01:00 +14°C° 1 mm 7 m/S 753 mmHg 79%
    02:00 +14°C° 0.6 mm 6 m/S 753 mmHg 78%
    03:00 +15°C° 0.6 mm 6 m/S 752 mmHg 78%
    04:00 +15°C° 0.6 mm 6 m/S 752 mmHg 77%
    05:00 +15°C° 0 mm 6 m/S 752 mmHg 74%
    06:00 +14°C° 0 mm 7 m/S 752 mmHg 71%
    07:00 +14°C° 0 mm 7 m/S 753 mmHg 69%
    08:00 +14°C° 0 mm 6 m/S 753 mmHg 64%
    09:00 +13°C° 0 mm 6 m/S 753 mmHg 59%
    10:00 +13°C° 0 mm 6 m/S 753 mmHg 54%
    11:00 +15°C° 0 mm 6 m/S 753 mmHg 49%
    12:00 +16°C° 0 mm 6 m/S 753 mmHg 44%
    13:00 +17°C° 0 mm 6 m/S 753 mmHg 38%
    14:00 +17°C° 0 mm 6 m/S 753 mmHg 38%
    15:00 +17°C° 0 mm 6 m/S 753 mmHg 38%
    16:00 +17°C° 0 mm 6 m/S 753 mmHg 38%
    17:00 +16°C° 0 mm 6 m/S 754 mmHg 41%
    18:00 +15°C° 0 mm 6 m/S 755 mmHg 45%
    19:00 +14°C° 0 mm 6 m/S 755 mmHg 48%
    20:00 +13°C° 0 mm 5 m/S 756 mmHg 51%
    21:00 +12°C° 0 mm 5 m/S 756 mmHg 53%
    22:00 +10°C° 0 mm 5 m/S 757 mmHg 56%
    23:00 +10°C° 0 mm 5 m/S 757 mmHg 57%

    25 April, Donnerstag

    Zeit Temperatur Niederschläge Wind Luftdruck Luftfeuchtigkeit
    00:00 +9°C° 0 mm 5 m/S 757 mmHg 59%
    01:00 +10°C° 0 mm 4 m/S 757 mmHg 60%
    02:00 +8°C° 0 mm 4 m/S 757 mmHg 60%
    03:00 +8°C° 0 mm 4 m/S 758 mmHg 61%
    04:00 +8°C° 0 mm 4 m/S 758 mmHg 61%
    05:00 +8°C° 0 mm 4 m/S 758 mmHg 59%
    06:00 +8°C° 0 mm 4 m/S 759 mmHg 58%
    07:00 +8°C° 0 mm 4 m/S 759 mmHg 56%
    08:00 +10°C° 0 mm 4 m/S 759 mmHg 52%
    09:00 +11°C° 0 mm 3 m/S 759 mmHg 48%
    10:00 +12°C° 0 mm 3 m/S 759 mmHg 45%
    11:00 +13°C° 0 mm 3 m/S 759 mmHg 42%
    12:00 +14°C° 0 mm 3 m/S 759 mmHg 39%
    13:00 +17°C° 0 mm 3 m/S 758 mmHg 37%
    14:00 +17°C° 0 mm 3 m/S 758 mmHg 37%
    15:00 +17°C° 0 mm 3 m/S 758 mmHg 38%
    16:00 +17°C° 0 mm 2 m/S 758 mmHg 38%
    17:00 +16°C° 0 mm 3 m/S 758 mmHg 43%
    18:00 +14°C° 0 mm 4 m/S 758 mmHg 49%
    19:00 +13°C° 0 mm 5 m/S 758 mmHg 54%
    20:00 +12°C° 0 mm 4 m/S 759 mmHg 59%
    21:00 +12°C° 0 mm 4 m/S 759 mmHg 65%
    22:00 +11°C° 0 mm 3 m/S 759 mmHg 70%
    23:00 +11°C° 0 mm 3 m/S 759 mmHg 71%

    26 April, Freitag

    Zeit Temperatur Niederschläge Wind Luftdruck Luftfeuchtigkeit
    00:00 +12°C° 0 mm 2 m/S 759 mmHg 71%
    01:00 +12°C° 0 mm 1 m/S 758 mmHg 72%
    02:00 +12°C° 0 mm 1 m/S 758 mmHg 71%
    03:00 +12°C° 0 mm 1 m/S 758 mmHg 71%
    04:00 +11°C° 0 mm 1 m/S 758 mmHg 70%
    05:00 +12°C° 0 mm 1 m/S 758 mmHg 69%
    06:00 +12°C° 0 mm 1 m/S 758 mmHg 68%
    07:00 +13°C° 0 mm 2 m/S 758 mmHg 68%
    08:00 +14°C° 0 mm 2 m/S 757 mmHg 65%
    09:00 +14°C° 0 mm 2 m/S 757 mmHg 61%
    10:00 +15°C° 0 mm 2 m/S 757 mmHg 58%
    11:00 +14°C° 0.6 mm 2 m/S 757 mmHg 63%
    12:00 +14°C° 0.6 mm 2 m/S 757 mmHg 67%
    13:00 +13°C° 0.6 mm 2 m/S 756 mmHg 71%
    14:00 +13°C° 1.1 mm 2 m/S 756 mmHg 73%
    15:00 +12°C° 1.1 mm 1 m/S 756 mmHg 76%
    16:00 +12°C° 1.1 mm 1 m/S 756 mmHg 78%
    17:00 +12°C° 0 mm 1 m/S 756 mmHg 78%
    18:00 +12°C° 0 mm 1 m/S 756 mmHg 79%
    19:00 +11°C° 0 mm 1 m/S 757 mmHg 79%
    20:00 +11°C° 0 mm 1 m/S 757 mmHg 80%
    21:00 +11°C° 0 mm 1 m/S 757 mmHg 81%
    22:00 +9°C° 0 mm 0 m/S 757 mmHg 82%
    23:00 +10°C° 0 mm 1 m/S 757 mmHg 81%
    Mehr zeigen